Location: R�serve Fauniques des Laurentides
(47.3100°N, 71.1900°W)
Time: 10:29:36
(UTC-04:00)

Cosmos 1674 - Visible Passes

Search period start: 29 June 2016 00:00
Search period end: 09 July 2016 00:00
Orbit: 502 x 524 km, 82.5° (Epoch: 29 June)

Date Brightness Start Highest point End Pass type
(mag) Time Alt. Az. Time Alt. Az. Time Alt. Az.
30 Jun 6.0 22:32:32 10° W 22:33:39 11° WNW 22:34:47 10° NW visible
01 Jul 5.8 22:15:50 10° W 22:17:45 13° WNW 22:19:41 10° NW visible
02 Jul 5.7 21:59:27 10° WSW 22:01:52 16° WNW 22:04:18 10° NNW visible
03 Jul 5.6 21:43:12 10° WSW 21:45:59 19° WNW 21:48:48 10° NNW visible
04 Jul 5.5 21:27:01 10° SW 21:30:07 22° WNW 21:33:14 10° NNW visible
